Weather History for Deer Park, WA

Change the Weather History Date:

Tuesday, November 20, 2012

  Actual Average Record
Temperature  
Mean Temperature 43 °F 32 °F  
Max Temperature 48 °F 39 °F 55 °F (2002)
Min Temperature 38 °F 25 °F 11 °F (2013)
Degree Days  
Heating Degree Days 22 33  
Month to date heating degree days 528 590  
Since 1 July heating degree days 1440 1658  
Cooling Degree Days 0 0  
Month to date cooling degree days 0 0  
Year to date cooling degree days 232 187  
Moisture  
Dew Point 44 °F    
Average Humidity 93    
Maximum Humidity 100    
Minimum Humidity 86    
Precipitation  
Precipitation 0.44 in 0.12 in 0.44 in (2012)
Month to date precipitation 2.98 2.14  
Year to date precipitation 22.98 18.20  
Sea Level Pressure  
Sea Level Pressure 29.75 in    
Wind  
Wind Speed 6 mph (SSE)    
Max Wind Speed 17 mph    
Max Gust Speed 22 mph    
Visibility 8 miles    
Events Rain    
T = Trace of Precipitation, MM = Missing Value Source: NWS Daily Summary

Daily Weather History Graph

Daily Weather History Graph

Search for Another Location

Airport:

Trip Planner

Search our weather history database for the weather conditions in past years. The results will help you decide how hot, cold, wet, or windy it might be!

Date:

Astronomy

Nov. 20, 2012 Rise Set
Actual Time 7:04 AM PST 4:06 PM PST
Civil Twilight 6:29 AM PST 4:40 PM PST
Nautical Twilight 5:51 AM PST 5:18 PM PST
Astronomical Twilight 5:14 AM PST 5:55 PM PST
Moon 12:24 PM PST (11/20) No Moon Set
Length of Visible Light 10h 11m
Length of Day
9h 02m
First Quarter, 52% of the Moon is Illuminated
Nov 20
First Quarter
Nov 28
Full
Dec 6
Last Quarter
Dec 13
New
Dec 19
First Quarter

Hourly Weather History & Observations

Time (PST) Temp. Windchill Dew Point Humidity Pressure Visibility Wind Dir Wind Speed Gust Speed Precip Events Conditions
12:35 AM 46.4 °F 41.9 °F 44.6 °F 93% 29.78 in 9.0 mi South 9.2 mph - 0.02 in Rain Light Rain
12:40 AM 46.4 °F 41.9 °F 44.6 °F 93% 29.78 in 10.0 mi South 9.2 mph - 0.02 in Rain Light Rain
12:44 AM 44.6 °F 39.2 °F 44.6 °F 100% 29.78 in 10.0 mi South 10.4 mph - 0.02 in Rain Light Rain
12:53 AM 46.0 °F 40.6 °F 44.1 °F 93% 29.81 in 9.0 mi South 11.5 mph - 0.03 in Rain Light Rain
1:10 AM 46.4 °F 41.9 °F 44.6 °F 93% 29.79 in 10.0 mi South 9.2 mph - 0.01 in Rain Light Rain
1:53 AM 45.0 °F 41.8 °F 43.0 °F 93% 29.81 in 10.0 mi SSW 5.8 mph - 0.02 in   Overcast
2:27 AM 44.6 °F 39.2 °F 42.8 °F 93% 29.79 in 10.0 mi South 10.4 mph - 0.00 in   Overcast
2:53 AM 46.0 °F 41.4 °F 43.0 °F 89% 29.81 in 10.0 mi SSW 9.2 mph - 0.00 in   Overcast
3:53 AM 46.0 °F 40.6 °F 43.0 °F 89% 29.81 in 10.0 mi South 11.5 mph - N/A   Overcast
4:53 AM 45.0 °F 40.6 °F 44.1 °F 97% 29.83 in 6.0 mi South 8.1 mph - 0.01 in Rain Rain
5:08 AM 44.6 °F 39.7 °F 44.6 °F 100% 29.80 in 6.0 mi South 9.2 mph - 0.02 in Rain Light Rain
5:15 AM 44.6 °F 39.7 °F 44.6 °F 100% 29.80 in 7.0 mi South 9.2 mph - 0.03 in Rain Light Rain
5:36 AM 44.6 °F 39.2 °F 44.6 °F 100% 29.78 in 7.0 mi SSE 10.4 mph - 0.05 in Rain Light Rain
5:53 AM 45.0 °F 41.2 °F 44.1 °F 97% 29.79 in 10.0 mi SSE 6.9 mph - 0.05 in Rain Light Rain
6:16 AM 44.6 °F 40.7 °F 44.6 °F 100% 29.78 in 10.0 mi SSE 6.9 mph - 0.00 in   Overcast
6:32 AM 44.6 °F 39.7 °F 44.6 °F 100% 29.77 in 10.0 mi SSE 9.2 mph - 0.00 in   Overcast
6:39 AM 44.6 °F 39.7 °F 44.6 °F 100% 29.77 in 10.0 mi SSE 9.2 mph - 0.00 in   Overcast
6:53 AM 45.0 °F 40.6 °F 44.1 °F 97% 29.79 in 10.0 mi SSE 8.1 mph - 0.00 in Rain Light Rain
7:42 AM 44.6 °F 42.2 °F 44.6 °F 100% 29.77 in 6.0 mi SE 4.6 mph - 0.03 in Rain Rain
7:50 AM 44.6 °F 40.7 °F 44.6 °F 100% 29.76 in 4.0 mi SE 6.9 mph - 0.05 in Rain Rain
7:53 AM 45.0 °F 41.2 °F 44.1 °F 97% 29.77 in 4.0 mi SE 6.9 mph - 0.05 in Rain Rain
8:02 AM 44.6 °F 41.4 °F 44.6 °F 100% 29.75 in 5.0 mi SE 5.8 mph - 0.01 in Rain Light Rain
8:53 AM 45.0 °F 41.2 °F 45.0 °F 100% 29.78 in 4.0 mi SSE 6.9 mph - 0.10 in Rain Rain
9:13 AM 44.6 °F 40.7 °F 44.6 °F 100% 29.74 in 6.0 mi SE 6.9 mph - 0.02 in Rain Light Rain
9:29 AM 44.6 °F 39.2 °F 44.6 °F 100% 29.74 in 10.0 mi SE 10.4 mph - 0.02 in Rain Light Rain
9:42 AM 44.6 °F 43.1 °F 44.6 °F 100% 29.74 in 8.0 mi South 3.5 mph - 0.03 in Rain Light Rain
9:53 AM 45.0 °F 41.8 °F 45.0 °F 100% 29.77 in 5.0 mi South 5.8 mph - 0.04 in Rain Light Rain
10:20 AM 46.4 °F 42.9 °F 44.6 °F 93% 29.75 in 10.0 mi SSE 6.9 mph - 0.02 in Rain Light Rain
10:33 AM 46.4 °F 42.9 °F 44.6 °F 93% 29.73 in 9.0 mi SE 6.9 mph - 0.03 in Rain Light Rain
10:53 AM 46.0 °F 41.4 °F 45.0 °F 96% 29.74 in 10.0 mi SE 9.2 mph - 0.03 in   Overcast
11:25 AM 46.4 °F 41.9 °F 44.6 °F 93% 29.71 in 10.0 mi SE 9.2 mph - 0.00 in   Overcast
11:53 AM 46.9 °F - 45.0 °F 93% 29.72 in 10.0 mi SSE 6.9 mph - 0.01 in Rain Light Rain
12:15 PM 46.4 °F 41.9 °F 44.6 °F 93% 29.70 in 7.0 mi SSE 9.2 mph - 0.01 in Rain Rain
12:22 PM 46.4 °F 40.1 °F 44.6 °F 93% 29.69 in 3.0 mi SE 15.0 mph - 0.04 in Rain Rain
12:34 PM 46.4 °F 40.1 °F 44.6 °F 93% 29.69 in 3.0 mi SE 15.0 mph - 0.06 in Rain Rain
12:53 PM 46.0 °F 41.0 °F 45.0 °F 96% 29.71 in 10.0 mi SSE 10.4 mph - 0.07 in Rain Light Rain
1:03 PM 46.4 °F 41.1 °F 44.6 °F 93% 29.70 in 10.0 mi SSE 11.5 mph - 0.00 in   Overcast
1:13 PM 46.4 °F 41.9 °F 44.6 °F 93% 29.69 in 10.0 mi SSE 9.2 mph - 0.00 in   Overcast
1:53 PM 46.9 °F - 46.0 °F 97% 29.69 in 8.0 mi SE 9.2 mph - 0.02 in Rain Light Rain
2:53 PM 46.9 °F - 46.0 °F 97% 29.70 in 10.0 mi SSE 3.5 mph - 0.01 in   Overcast
3:00 PM 46.4 °F 43.5 °F 46.4 °F 100% 29.69 in 10.0 mi SSE 5.8 mph - N/A   Mostly Cloudy
3:07 PM 46.4 °F 43.5 °F 46.4 °F 100% 29.69 in 10.0 mi South 5.8 mph - N/A   Mostly Cloudy
3:21 PM 46.4 °F 44.3 °F 44.6 °F 93% 29.69 in 10.0 mi Variable 4.6 mph - N/A   Mostly Cloudy
3:49 PM 46.4 °F 42.4 °F 44.6 °F 93% 29.69 in 10.0 mi South 8.1 mph - N/A   Overcast
3:53 PM 46.9 °F - 45.0 °F 93% 29.70 in 10.0 mi SSE 6.9 mph - N/A   Mostly Cloudy
4:28 PM 46.4 °F - 44.6 °F 93% 29.70 in 10.0 mi Calm Calm - N/A   Mostly Cloudy
4:53 PM 45.0 °F - 44.1 °F 97% 29.73 in 10.0 mi Calm Calm - N/A   Mostly Cloudy
5:53 PM 39.9 °F 37.8 °F 39.9 °F 100% 29.74 in 6.0 mi ESE 3.5 mph - N/A   Mostly Cloudy
6:50 PM 39.2 °F 35.9 °F 39.2 °F 100% 29.72 in 1.5 mi NE 4.6 mph - N/A   Mostly Cloudy
6:53 PM 39.0 °F 34.8 °F 39.0 °F 100% 29.75 in 0.8 mi NE 5.8 mph - N/A   Mostly Cloudy
7:12 PM 39.2 °F 37.0 °F 39.2 °F 100% 29.72 in 1.5 mi NE 3.5 mph - N/A   Scattered Clouds
7:22 PM 39.2 °F - 39.2 °F 100% 29.72 in 4.0 mi Calm Calm - N/A   Partly Cloudy
7:53 PM 44.1 °F - 41.0 °F 89% 29.73 in 10.0 mi Calm Calm - N/A   Partly Cloudy
8:53 PM 45.0 °F 41.8 °F 41.0 °F 86% 29.75 in 10.0 mi South 5.8 mph - N/A   Overcast
9:53 PM 41.0 °F 38.0 °F 39.0 °F 93% 29.76 in 10.0 mi SSE 4.6 mph - N/A   Overcast
10:53 PM 39.9 °F - 39.0 °F 97% 29.75 in 10.0 mi Calm Calm - N/A   Mostly Cloudy
11:53 PM 42.1 °F 39.2 °F 39.0 °F 89% 29.74 in 10.0 mi South 4.6 mph - N/A   Mostly Cloudy